CW9352 Weather Reports


time (UTC)temp
C
wind
direction
speed
KPH
gust
KPH
rain 1hr
cm
rain 24hr
cm
rain mn
cm
humidity
%
barometer
mb
20260504034023 15 324 3.2 4.8 0.00 0.00 0.00 79 1018.9
20260504033024 15 337 3.2 3.2 0.00 0.00 0.00 79 1018.9
20260504032024 15 306 1.6 3.2 0.00 0.00 0.00 79 1018.9
20260504031023 15 322 1.6 3.2 0.00 0.00 0.00 79 1019.0
20260504025021 15 304 1.6 1.6 0.00 0.00 0.00 80 1019.0
20260504024022 15 314 1.6 3.2 0.00 0.00 0.00 80 1018.9
20260504023022 16 316 1.6 3.2 0.00 0.00 0.00 81 1018.8
20260504022022 16 296 1.6 3.2 0.00 0.00 0.00 79 1018.7
20260504021022 16 305 1.6 1.6 0.00 0.00 0.00 77 1018.5
20260504020022 17 306 1.6 3.2 0.00 0.00 0.00 76 1018.5
20260504015022 18 296 1.6 1.6 0.00 0.00 0.00 74 1018.2
20260504014022 19 307 1.6 1.6 0.00 0.00 0.00 71 1018.1
20260504013023 20 312 1.6 3.2 0.00 0.00 0.00 67 1018.1
20260504012022 20 277 1.6 3.2 0.00 0.00 0.00 65 1017.9
20260504011023 20 228 1.6 4.8 0.00 0.00 0.00 66 1017.8
20260504010023 20 238 3.2 6.4 0.00 0.00 0.00 67 1017.8
20260504005023 20 239 3.2 6.4 0.00 0.00 0.00 69 1017.8
20260504004021 20 226 3.2 9.7 0.00 0.00 0.00 66 1017.7
20260504003023 20 221 3.2 6.4 0.00 0.00 0.00 66 1017.7
20260504002024 21 222 3.2 8.0 0.00 0.00 0.00 65 1017.6
20260504001024 21 219 3.2 6.4 0.00 0.00 0.00 64 1017.5
20260504000024 21 241 3.2 6.4 0.00 0.00 0.00 63 1017.6
20260503235024 21 228 3.2 6.4 0.00 0.00 0.00 63 1017.6
20260503234024 21 225 3.2 8.0 0.00 0.00 0.00 62 1017.6
20260503233021 21 219 4.8 11.3 0.00 0.00 0.00 60 1017.5
20260503232045 22 224 3.2 6.4 0.00 0.00 0.00 59 1017.6
20260503231044 22 225 1.6 4.8 0.00 0.00 0.00 59 1017.6
20260503230022 22 212 4.8 9.7 0.00 0.00 0.00 58 1017.6
20260503225022 22 231 3.2 8.0 0.00 0.00 0.00 56 1017.7
20260503224022 22 214 3.2 11.3 0.00 0.00 0.00 55 1017.6
20260503223022 22 215 3.2 11.3 0.00 0.00 0.00 53 1017.6
20260503222022 22 219 4.8 11.3 0.00 0.00 0.00 50 1017.5
20260503221022 22 214 3.2 11.3 0.00 0.00 0.00 50 1017.5
20260503220023 22 223 4.8 11.3 0.00 0.00 0.00 52 1017.6
20260503215017 23 213 4.8 11.3 0.00 0.00 0.00 53 1017.7
20260503214017 23 200 4.8 12.9 0.00 0.00 0.00 53 1017.8
20260503213023 23 204 4.8 12.9 0.00 0.00 0.00 52 1018.0
20260503212020 23 214 4.8 12.9 0.00 0.00 0.00 52 1018.0
20260503211018 23 214 4.8 11.3 0.00 0.00 0.00 51 1018.2
20260503210018 23 221 4.8 11.3 0.00 0.00 0.00 50 1018.2
20260503205018 23 214 4.8 14.5 0.00 0.00 0.00 50 1018.3
20260503204018 23 215 3.2 11.3 0.00 0.00 0.00 47 1018.3
20260503203021 23 205 3.2 9.7 0.00 0.00 0.00 47 1018.4
20260503202018 24 215 3.2 9.7 0.00 0.00 0.00 46 1018.6
20260503201028 25 172 3.2 6.4 0.00 0.00 0.00 45 1018.7
20260503200027 25 348 1.6 4.8 0.00 0.00 0.00 40 1018.7
20260503195021 24 1 3.2 8.0 0.00 0.00 0.00 39 1018.9
20260503194019 24 5 4.8 12.9 0.00 0.00 0.00 40 1019.1
20260503193019 25 7 6.4 14.5 0.00 0.00 0.00 39 1019.4
20260503192028 25 359 3.2 8.0 0.00 0.00 0.00 41 1019.5
20260503191039 25 5 3.2 9.7 0.00 0.00 0.00 42 1019.7
20260503190019 25 347 1.6 6.4 0.00 0.00 0.00 43 1019.9
20260503185019 24 2 3.2 9.7 0.00 0.00 0.00 39 1019.9
20260503184020 24 353 3.2 11.3 0.00 0.00 0.00 40 1020.2
20260503183017 24 343 1.6 6.4 0.00 0.00 0.00 41 1020.2
20260503182020 23 346 1.6 9.7 0.00 0.00 0.00 41 1020.3
20260503181020 24 358 3.2 9.7 0.00 0.00 0.00 41 1020.4
20260503180020 23 329 1.6 6.4 0.00 0.00 0.00 41 1020.4
20260503175017 23 347 3.2 8.0 0.00 0.00 0.00 42 1020.5
20260503174021 23 4 3.2 9.7 0.00 0.00 0.00 41 1020.5
20260503173021 23 352 1.6 11.3 0.00 0.00 0.00 42 1020.6
20260503172021 22 2 3.2 11.3 0.00 0.00 0.00 42 1020.7
20260503171021 23 355 6.4 11.3 0.00 0.00 0.00 41 1020.8
20260503131039 16 337 3.2 8.0 0.00 0.00 0.00 67 1021.2
20260503081041 9 325 1.6 3.2 0.00 1.98 0.00 91 1019.2
20260503072022 10 311 1.6 1.6 0.00 2.92 0.00 90 1018.9
20260503071024 10 312 1.6 3.2 0.00 2.97 0.00 90 1018.9
20260503055024 9 299 1.6 1.6 0.00 3.84 0.00 90 1018.6
20260503054024 9 295 1.6 1.6 0.00 4.04 0.00 89 1018.6
20260503053025 10 298 1.6 1.6 0.00 4.04 0.00 88 1018.5
20260503052024 10 305 1.6 1.6 0.00 4.04 0.00 88 1018.6
20260503051024 10 301 1.6 3.2 0.00 4.04 0.00 87 1018.6
20260503050024 10 305 0.0 1.6 0.00 4.04 0.00 86 1018.4
20260503045024 11 302 1.6 1.6 0.00 4.04 4.04 84 1018.3
20260503044027 11 310 1.6 1.6 0.00 4.04 4.04 80 1018.3
20260503043045 11 315 1.6 1.6 0.00 4.04 4.04 79 1018.2
20260503042025 12 317 1.6 3.2 0.00 4.04 4.04 78 1018.1
20260503041025 12 315 1.6 1.6 0.00 4.06 4.04 78 1018.0
20260503040025 12 303 1.6 3.2 0.00 4.17 4.04 77 1017.9
20260503035025 13 307 1.6 3.2 0.00 4.27 4.04 75 1017.8